Regional Weather Roundup
Issued by NWS

Home | Current Version | Previous Version | Text Only | Print | Product List | Glossary On
Versions: 1 2 3 4 5 6 7 8 9 10 11 12 13 14 15 16 17 18 19 20 21 22 23 24 25 26 27 28 29 30 31 32 33 34 35 36 37 38 39 40 41 42 43 44 45 46 47 48 49 50
000
ASUS43 KLMK 301810
RWRKY
KENTUCKY REGIONAL WEATHER ROUNDUP
NATIONAL WEATHER SERVICE LOUISVILLE KY
100 PM EST FRI JAN 30 2015

NOTE "FAIR" INDICATES FEW OR NO CLOUDS BELOW 12,000 FEET
WITH NO SIGNIFICANT WEATHER AND/OR OBSTRUCTIONS TO VISIBILITY.

KYZ001>023-026-027-061>063-070>075-301900-
WESTERN AND SOUTH CENTRAL KENTUCKY

CITY           SKY/WX    TMP DP  RH WIND       PRES   REMARKS
PADUCAH        SUNNY     41  21  44 N9        30.50F
HENDERSON      MOSUNNY   37  21  52 N6        30.50F WCI  33
OWENSBORO      MOSUNNY   38  21  50 N12       30.50F WCI  30
HOPKINSVILLE   MOSUNNY   39  23  53 NW5       30.48F
BOWLING GREEN  MOSUNNY   41  20  43 VRB6      30.48F
GLASGOW        PTSUNNY   40  22  50 NE9       30.45F WCI  33
$$

KYZ024-025-028>034-038-045-046-053-301900-
NORTH CENTRAL KENTUCKY

CITY           SKY/WX    TMP DP  RH WIND       PRES   REMARKS
LOUISVILLE/SDF MOSUNNY   38  17  42 N13       30.47F WCI  30
LOUISVILLE/LOU SUNNY     36  15  42 N10G20    30.48F WCI  28
FORT KNOX      CLOUDY    36  23  60 N12G17    30.45F WCI  27
$$

KYZ035>037-039>044-047>052-055>060-089>105-301900-
NORTHEAST KENTUCKY

CITY           SKY/WX    TMP DP  RH WIND       PRES   REMARKS
LEXINGTON      PTSUNNY   32  17  54 NW13      30.44S WCI  22
COVINGTON      PTSUNNY   30  14  51 N10G20    30.44  WCI  21
FRANKFORT      PTSUNNY   34  15  46 N12       30.44F WCI  25
$$

KYZ054-064>069-076>088-106>120-301900-
SOUTHEAST KENTUCKY

CITY           SKY/WX    TMP DP  RH WIND       PRES   REMARKS
JACKSON        PTSUNNY   32  18  56 NW12G22   30.36R WCI  23
LONDON         MOSUNNY   37  21  52 NW8G20    30.39R WCI  31
SOMERSET       PTSUNNY   36  23  60 NW10      30.43F WCI  28
MIDDLESBORO    CLOUDY    37  19  48 N6G20     30.37F WCI  33
MONTICELLO     MOCLDY    39  24  55 N13G18    30.44F WCI  31
$$



USA.gov is the U.S. government's official web portal to all federal, state and local government web resources and services.